Find OneWeb SL0181

NORAD ID: 48230 Int'l Des: 2021-031 Owner: ONEWEBN Country: UK Constellation: oneweb operational
又名: ONEWEB-0181 spacetrack, celestrak
LEOCIRCULARPOLARONEWEB_TYPE

当前视图

正在加载3D地球...

About OneWeb SL0181

OneWeb SL0181 (NORAD 48230) is a oneweb constellation satellite launched Apr 25, 2021 by ONEWEBN of UK. It operates in LEO, CIRCULAR, POLAR, ONEWEB_TYPE orbit with a mass of 148.00 kg.

即将过境

Passes for default location (London). Set your location on the main map for personalized predictions.

高度历史

Loading altitude history...

两行轨道根数

1 48230U 21031W 26265.98245242 .00000008 00000-0 -12059-4 0 9991
2 48230 87.8896 270.2108 0001616 96.7884 263.3429 13.14505363261088
Epoch: Sep 22, 2026 • Age: 16 hours

当前状态

高度 1234.3 km
远地点 / 近地点 N/A
速度 7.24 km/s
星下点 -75.07°S, 136.82°W
发射日期 Apr 25, 2021
运行时间 5.4 years
类型 internet

技术详情

分类 Payload
质量 148.00 kg
干质量 140.00 kg
长度 1.30 m
直径 1.00 m
跨度 5.00 m
形状 ? Trapezoid+2 pan
制造商 ONEWUS
平台类型 ARROW
阶段状态 In Orbit
所有者/国家 ONEWEBN/UK

Most Searched